[Date Prev][Date Next][Thread Prev][Thread Next] - [Date Index][Thread Index][Author Index]

2 Line ISS Keps 6-8



ISS
1 25544U 98067A   01159.23302083  .00033030  00000-0  38210-3 0   589
2 25544  51.5707 133.8957 0017222 134.9996  69.1154 15.61367046145676

----
Via the sarex mailing list at AMSAT.ORG courtesy of AMSAT-NA.
To unsubscribe, send "unsubscribe sarex" to Majordomo@amsat.org



AMSAT Top AMSAT Home